STARLINK-5739, 55571

Orbit data source: Space-Track

STARLINK-5739, 55571 is a payload satellite owned by SpaceX/Seattle (US) in LEO that was launched on Sun, 12 Feb 2023 UTC via an FALCON 9 launch vehicle from the Air Force Eastern Test Range (AFETR). Payload-class satellites include a variety of spacecraft equipped with specific instruments for various scientific and technological missions. These include communications satellites like Starlink; space stations such as the ISS; scientific satellites like the Hubble; Earth observation satellites from companies like Planet Labs, Umbra, and HawkEye 360; GPS; miniature CubeSats for education and research; and military/defense satellites.

Loading next visibility...
Identifier
55571, 2023-020C
Orbit
LEO
Country
Flag of USUS
Related business
Manufacturer
SpaceX/Seattle
Mission
Operational Commercial Communications
Bus & Motor
STARLINK, Unknown motor
Mass
305 kg wet, ~290 kg dry
Launch date (UTC)
2023-02-12 (4 years ago)
Launch vehicle
FALCON 9
Launch site
Air Force Eastern Test Range (AFETR)
Object type
Payload
Rocket body
Debris
Shape & HBR
Box + 1 Pan, 10.1 m
Radar Cross Section
13.562 m², Large (>1 m²)

Expand to show TLE details & history
Last TLE update: 12 hours ago

TLE from 12 hours ago
0 STARLINK-5739
1 55571U 23020C   26263.93824452 -.00000170  00000-0  33495-5 0  9994
2 55571  43.0041 345.9448 0001103 273.4498  86.6227 15.27574219198738
Epoch: 2026-09-20T22:31Z
TLE epoch observation values (Epoch: 2026-09-20T22:31:04.326Z)
Latitude
-0.00006°
Longitude
8.35147°
Altitude
482.798 km
Speed
7.626 km/s
True Right ascension
23h 03m 46s
True Declination
0° 00' 00"
Sunlit
Object was in full shadow at epoch
Visualization orbit readout
Latitude
Unknown
Longitude
Unknown
Altitude
Unknown
Speed
Unknown
Apparent Right ascension
Unknown
Apparent Declination
Unknown
Sunlit
N/A
Visualization observer readout
Local Sidereal Time
03:12:34
Azimuth
Unknown
Elevation
Unknown
Doppler factor
Unknown
Orbital elements
Apogee altitude
485.768 km
Perigee altitude
484.254 km
Semi-major axis
6,863.148 km
Eccentricity
0.00011
Inclination
43.0041°
RAAN
345.9448°
Arg. of periapsis
273.4498°
True anomaly
86.63532°
Mean anomaly
86.6227°
Eccentric anomaly
86.62901°
Mean motion
3.81732 °/min
Orbital period
94.31 mins
BSTAR
0.0000033495
Loading maneuver chart data...
Computing Atmospheric mass density...
Loading historical data...
Loading historical data...
Loading historical data...
Loading historical data...
Loading historical data...
Loading historical data...
Loading historical data...

Documentation

Showing up to 5 results
|